Flag for Canada Weather past 2 weeks in Lethbridge, Alberta, Canada

Now
70 °F

Passing clouds.


Feels Like: 70 °F
Forecast: 41 / 67 °F
Wind: 3 mph from South

Location: Lethbridge

Current Time: May 4, 2015 at 7:18:14 PM

Latest Report: May 4, 2015 at 7:00 PM


Visibility: 25 mi

Pressure: 29.77 "Hg

Humidity: 23%

Dew point: 30 °F

Location of LethbridgeLocation

Historic Weather in Lethbridge — Graph

°F

Lethbridge temperature yesterday

Maximum temperature yesterday: 57 °F (at 3:00 PM)
Minimum temperature yesterday: 32 °F (at 6:00 AM)
Average temperature yesterday: 44 °F

Past Weeks' High & Low Weather Summary

 TemperatureHumidityPressure
High79 °F (Apr 28, 3:00 PM)93% (Apr 21, 7:00 AM)30.27 "Hg (Apr 21, 7:00 AM)
Low27 °F (Apr 20, 3:00 AM)15% (Apr 28, 4:00 PM)29.62 "Hg (Apr 24, 3:00 AM)
Average49 °F52%29.92 "Hg
* Reported Apr 19 6:00 PM — May 4 6:00 PM, Lethbridge, Weather by CustomWeather, © 2015

Note: Actual official high and low records may vary slightly from our data, if they occured in-between our weather recording intervals... More about our weather records

Advertising

Lethbridge weather history for previous 24 hours

 ConditionsComfort  
Time TempWeatherWind HumidityBarometerVisibility
6:00 PM
Mon, May 4
72 °FPassing clouds.7 mph19%29.78 "Hg25 mi
5:00 PM72 °FPassing clouds.3 mph22%29.79 "Hg25 mi
4:00 PM70 °FPassing clouds.3 mph20%29.82 "Hg25 mi
3:00 PM68 °FMild.3 mph23%29.86 "Hg25 mi
2:00 PM64 °FSunny.2 mph26%29.89 "Hg40 mi
1:00 PM63 °FSunny.5 mph27%29.92 "Hg40 mi
12:00 PM57 °FSunny.3 mph39%29.95 "Hg40 mi
11:00 AM55 °FSunny.2 mph44%29.96 "Hg40 mi
10:00 AM48 °FSunny.5 mph50%29.98 "Hg40 mi
9:00 AM43 °FSunny.8 mph61%29.99 "Hg40 mi
8:00 AM36 °FSunny.10 mph75%30.00 "Hg40 mi
7:00 AM28 °FClear.7 mph86%30.01 "Hg40 mi
6:00 AM27 °FClear.8 mph93%30.01 "Hg40 mi
5:00 AM30 °FClear.3 mph80%30.01 "Hg9 mi
4:00 AM32 °FClear.6 mph80%30.01 "Hg9 mi
3:00 AM34 °FClear.8 mph75%30.01 "Hg9 mi
2:00 AM34 °FClear.No wind75%30.03 "Hg9 mi
1:00 AM37 °FClear.5 mph65%30.03 "Hg3 mi
12:00 AM36 °FClear.8 mph70%30.05 "Hg9 mi
11:04 PM
Sun, May 3
39 °FClear.8 mph65%30.06 "Hg5 mi
10:53 PM39 °FClear.9 mph65%30.06 "Hg7 mi
10:00 PM43 °FPassing clouds.9 mph61%30.05 "Hg15 mi
9:00 PM46 °FScattered clouds.9 mph53%30.03 "Hg30 mi
8:00 PM54 °FPartly sunny.10 mph38%30.01 "Hg25 mi
7:00 PM57 °FScattered clouds.10 mph31%30.02 "Hg25 mi
Weather by CustomWeather, © 2015

See weather overviewHow to use our weather pages